Weather History for Wolf Point, MT

Change the Weather History Date:

Saturday, May 11, 2013

  Actual Average Record
Temperature  
Mean Temperature 45 °F -  
Max Temperature 66 °F 68 °F 77 °F (2007)
Min Temperature 23 °F 37 °F 23 °F (2013)
Degree Days  
Heating Degree Days 20    
Cooling Degree Days 0    
Moisture  
Dew Point 22 °F    
Average Humidity 41    
Maximum Humidity 75    
Minimum Humidity 19    
Precipitation  
Precipitation 0.00 in 0.04 in 0.50 in (2004)
Month to date precipitation 0.19 0.43  
Year to date precipitation 1.17 2.35  
Sea Level Pressure  
Sea Level Pressure 30.34 in    
Wind  
Wind Speed 6 mph (East)    
Max Wind Speed 14 mph    
Max Gust Speed -    
Visibility 10 miles    
Events      
T = Trace of Precipitation, MM = Missing Value Source: NWS Daily Summary

Daily Weather History Graph

Daily Weather History Graph

Search for Another Location

Airport:

Trip Planner

Search our weather history database for the weather conditions in past years. The results will help you decide how hot, cold, wet, or windy it might be!

Date:

Astronomy

May. 11, 2013 Rise Set
Actual Time 5:28 AM MDT 8:30 PM MDT
Civil Twilight 4:51 AM MDT 9:06 PM MDT
Nautical Twilight 4:04 AM MDT 9:54 PM MDT
Astronomical Twilight 3:06 AM MDT 10:52 PM MDT
Moon 6:35 AM MDT (5/11) 10:15 PM MDT (5/11)
Length of Visible Light 16h 15m
Length of Day
15h 01m
Waxing Crescent, 3% of the Moon is Illuminated
May 11
Waxing Crescent
May 17
First Quarter
May 24
Full
May 31
Last Quarter
Jun 8
New

Hourly Weather History & Observations

Time (MDT) Temp. Windchill Dew Point Humidity Pressure Visibility Wind Dir Wind Speed Gust Speed Precip Events Conditions
12:53 AM 37.9 °F 32.1 °F 23.0 °F 55% 30.45 in 10.0 mi NNE 8.1 mph - N/A   Clear
1:53 AM 32.0 °F 26.4 °F 21.9 °F 66% 30.47 in 10.0 mi South 5.8 mph - N/A   Clear
2:53 AM 32.0 °F 28.7 °F 21.9 °F 66% 30.48 in 10.0 mi North 3.5 mph - N/A   Clear
3:53 AM 30.0 °F 23.2 °F 21.0 °F 69% 30.49 in 10.0 mi NNE 6.9 mph - N/A   Clear
4:53 AM 26.1 °F 20.5 °F 19.0 °F 75% 30.50 in 10.0 mi ENE 4.6 mph - N/A   Clear
5:53 AM 28.0 °F - 19.9 °F 72% 30.51 in 10.0 mi Calm Calm - N/A   Clear
6:53 AM 33.1 °F 27.7 °F 23.0 °F 66% 30.50 in 10.0 mi ENE 5.8 mph - N/A   Clear
7:53 AM 37.9 °F 32.1 °F 25.0 °F 60% 30.48 in 10.0 mi East 8.1 mph - N/A   Clear
8:53 AM 45.0 °F 41.2 °F 26.1 °F 48% 30.47 in 10.0 mi ESE 6.9 mph - N/A   Clear
9:53 AM 50.0 °F - 24.1 °F 36% 30.44 in 10.0 mi SE 10.4 mph - N/A   Clear
10:53 AM 52.0 °F - 21.9 °F 31% 30.41 in 10.0 mi Variable 4.6 mph - N/A   Clear
11:53 AM 55.0 °F - 21.9 °F 28% 30.38 in 10.0 mi ENE 5.8 mph - N/A   Clear
12:53 PM 57.9 °F - 21.9 °F 25% 30.34 in 10.0 mi Variable 3.5 mph - N/A   Clear
1:53 PM 60.1 °F - 21.9 °F 23% 30.31 in 10.0 mi Variable 3.5 mph - N/A   Clear
2:53 PM 63.0 °F - 23.0 °F 22% 30.27 in 10.0 mi SE 4.6 mph - N/A   Clear
3:34 PM 64.4 °F - 21.2 °F 19% 30.22 in 10.0 mi Variable 3.5 mph - N/A   Partly Cloudy
3:53 PM 64.0 °F - 21.9 °F 20% 30.25 in 10.0 mi Variable 4.6 mph - N/A   Partly Cloudy
4:53 PM 66.0 °F - 23.0 °F 20% 30.22 in 10.0 mi ESE 8.1 mph - N/A   Clear
5:53 PM 64.9 °F - 21.9 °F 19% 30.20 in 10.0 mi East 6.9 mph - N/A   Clear
6:53 PM 64.0 °F - 23.0 °F 21% 30.17 in 10.0 mi East 13.8 mph - N/A   Clear
7:53 PM 60.8 °F - 21.2 °F 22% 30.13 in 10.0 mi East 11.5 mph - N/A   Clear
8:53 PM 55.0 °F - 21.0 °F 27% 30.17 in 10.0 mi East 10.4 mph - N/A   Clear
9:53 PM 48.9 °F - 23.0 °F 36% 30.17 in 10.0 mi ENE 8.1 mph - N/A   Clear
10:53 PM 44.1 °F 39.5 °F 23.0 °F 43% 30.18 in 10.0 mi East 8.1 mph - N/A   Clear
11:53 PM 41.0 °F 34.7 °F 21.0 °F 45% 30.17 in 10.0 mi ENE 10.4 mph - N/A   Clear